Visibility
15.0 15.0 15.0 15.0 15.0 15.0 15.0 15.0 15.0 15.0 15.0 15.0 15.0 15.0 15.0 15.0 15.0 15.0 15.0 15.0 15.0 15.0 15.0 15.0 15.0 15.0 15.0
15.0 15.0 15.0 15.0 15.0 15.0 15.0 15.0 15.0 15.0 15.0 15.0 15.0 15.0 15.0 15.0 15.0 15.0 15.0 15.0 15.0 15.0 15.0 15.0 15.0 15.0 15.0
15.0 15.0 15.0 15.0 15.0 15.0 15.0 15.0 15.0 15.0 15.0 15.0 15.0 15.0 15.0 15.0 15.0 15.0 15.0 15.0 15.0 15.0 15.0 15.0 15.0 15.0 15.0
15.0 15.0 15.0 15.0 15.0 15.0 15.0 15.0 15.0 15.0 15.0 15.0 15.0 15.0 15.0 15.0 15.0 15.0 15.0 15.0 15.0 15.0 15.0 15.0 15.0 15.0 15.0
15.0 15.0 15.0 15.0 15.0 15.0 15.0 15.0 15.0 15.0 15.0 15.0 15.0 15.0 15.0 15.0 15.0 15.0 15.0 15.0 15.0 15.0 15.0 15.0 15.0 15.0 15.0
15.0 15.0 15.0 15.0 15.0 15.0 15.0 15.0 15.0 15.0 15.0 15.0 15.0 15.0 15.0 15.0 15.0 15.0 15.0 15.0 15.0 15.0 15.0 15.0 15.0 15.0 15.0
14.9 15.0 15.0 15.0 15.0 15.0 15.0 14.7 15.0 15.0 15.0 15.0 15.0 15.0 15.0 15.0 15.0 15.0 15.0 15.0 15.0 15.0 15.0 15.0 15.0 15.0 15.0
15.0 15.0 15.0 15.0 15.0 15.0 13.7 8.3 10.7 15.0 15.0 3.8 15.0 15.0 15.0 15.0 15.0 15.0 15.0 15.0 15.0 15.0 15.0 13.0 15.0 15.0 15.0
15.0 15.0 15.0 15.0 15.0 14.9 15.0 10.9 11.3 15.0 15.0 12.8 15.0 15.0 15.0 15.0 15.0 15.0 15.0 15.0 15.0 15.0 15.0 14.0 15.0 15.0 15.0
14.0 14.9 15.0 15.0 15.0 15.0 15.0 0.6 1.2 1.6 15.0 2.1 1.2 10.0 1.8 15.0 15.0 15.0 15.0 15.0 15.0 14.6 7.5 8.1 9.2 10.0 9.7
0.2 11.1 15.0 15.0 15.0 15.0 15.0 15.0 0.3 0.8 15.0 2.2 0.0 2.1 0.0 0.1 6.7 15.0 15.0 15.0 15.0 15.0 5.4 4.5 5.0 6.2 0.1
15.0 15.0 15.0 15.0 15.0 15.0 15.0 15.0 11.7 6.4 15.0 10.7 0.1 0.1 0.1 0.2 0.1 10.0 15.0 15.0 0.2 0.0 0.0 0.8 4.0 4.2 1.6
15.0 15.0 15.0 15.0 15.0 15.0 15.0 15.0 15.0 15.0 15.0 15.0 10.1 0.0 0.0 0.0 0.0 0.1 0.1 4.7 0.0 0.0 0.0 0.0 0.0 1.2 14.0
15.0 15.0 15.0 15.0 15.0 15.0 15.0 15.0 4.2 9.5 15.0 15.0 12.8 0.0 0.0 0.0 0.0 0.0 0.2 0.2 0.3 0.1 0.1 0.1 0.6 15.0 14.8
15.0 15.0 15.0 15.0 15.0 15.0 7.6 8.6 0.1 14.0 15.0 15.0 15.0 0.0 0.0 0.0 0.0 0.1 0.2 0.1 0.1 0.1 0.1 0.3 0.4 7.3 15.0
3.7 5.8 1.5 9.2 2.3 0.3 0.8 0.3 0.4 10.8 0.6 7.7 0.4 0.1 0.0 0.0 0.0 0.1 0.1 0.1 0.1 0.3 0.8 0.2 13.2 15.0 15.0
0.7 0.5 1.2 0.7 2.0 3.9 1.7 1.8 3.5 1.4 0.2 0.1 0.1 0.2 0.2 0.3 1.0 0.0 0.1 0.2 0.1 0.1 0.6 0.7 11.7 15.0 15.0